Tracking 28125 objects as of 3-Oct-2023
HD Live streaming from Space Station
objects crossing your sky now

STARLINK-3567

Track STARLINK-3567 now!
10-day predictions
STARLINK-3567 is classified as:


NORAD ID: 51871
Int'l Code: 2022-022V
Perigee: 545.9 km
Apogee: 547.9 km
Inclination: 53.2 °
Period: 95.4 minutes
Semi major axis: 6917 km
RCS: Unknown
Launch date: March 3, 2022
Source: United States (US)
Launch site: AIR FORCE EASTERN TEST RANGE (AFETR)
Your satellite tracking list
Your tracking list is empty




NASA's NSSDC Master Catalog

Two Line Element Set (TLE):
1 51871U 22022V   23275.60640845  .00000860  00000-0  72145-4 0  9999
2 51871  53.2183  40.3736 0001498  85.6429 274.4734 15.08835358 89009
Source of the keplerian elements: AFSPC